Probability
0 0 0 0 0 0 0 0 0 0 0 0 0 0 0 0 0 0 0 0 0 0 0 0 0 0 0 0 0 0 0 0 0 0 0 0 0 0 0 0 0 0 0 0
0 0 0 0 0 0 0 0 0 0 0 0 0 0 0 0 0 0 0 0 0 0 0 0 0 0 0 0 0 0 0 0 0 0 0 0 0 0 0 0 0 0 0 0
0 0 0 0 0 0 0 0 0 0 0 0 0 0 0 0 0 0 0 0 0 0 0 0 0 0 0 0 0 0 0 0 0 0 0 0 0 0 0 0 0 0 0 0
0 0 0 0 0 0 0 0 0 0 0 0 0 0 0 0 0 0 0 0 0 0 0 0 0 0 0 0 0 0 0 0 0 0 0 0 0 0 0 0 0 0 0 0
0 0 0 0 0 0 0 0 0 0 0 0 0 0 0 0 0 0 0 0 0 0 0 0 0 0 0 0 0 0 0 0 0 0 0 0 0 0 0 0 0 0 0 0
0 0 0 0 0 0 0 0 0 0 0 0 0 0 0 0 0 0 0 0 0 0 0 0 0 0 0 0 0 0 0 0 0 0 0 0 0 0 0 0 0 0 0 0
0 0 0 0 0 0 0 0 0 0 0 0 0 0 0 0 0 0 0 0 0 0 0 0 0 0 0 0 0 0 0 0 0 0 0 0 0 0 0 0 0 0 0 0
0 0 0 0 0 0 0 0 0 0 0 0 0 0 0 0 0 0 0 0 0 0 0 0 0 0 0 0 0 0 0 0 0 0 0 0 0 0 0 0 0 0 0 0
0 0 0 0 0 0 0 0 0 0 0 0 0 0 0 0 0 0 0 0 0 0 0 0 0 0 0 0 0 0 0 0 0 0 0 0 0 0 0 0 0 0 0 0
0 0 0 0 0 0 0 0 0 0 0 0 0 0 0 0 0 0 0 0 0 0 0 0 0 0 0 0 0 0 0 0 0 0 0 0 0 0 0 0 0 0 0 0
0 0 0 0 0 0 0 0 0 0 0 0 0 0 0 0 0 0 0 0 0 0 0 0 0 0 0 0 0 0 0 0 0 0 0 0 0 0 0 0 0 0 0 0
0 0 0 0 0 0 0 0 0 0 0 0 0 0 0 0 0 0 0 0 0 0 0 0 0 0 0 0 0 0 0 0 0 0 0 0 0 0 0 0 0 0 0 0
0 0 0 0 0 0 0 0 0 0 0 0 0 0 0 0 0 0 0 0 0 0 0 0 0 0 0 0 0 0 0 0 0 0 0 0 0 0 0 0 0 0 0 0
0 0 0 0 0 0 0 0 0 0 0 0 0 0 0 0 0 0 0 0 0 0 0 0 0 0 0 0 0 0 0 0 0 0 0 0 0 0 0 0 0 0 0 0
0 0 0 0 0 0 0 0 0 0 0 0 0 0 0 0 0 0 0 0 0 0 0 0 0 0 0 0 0 0 0 0 0 0 0 0 0 0 0 0 0 0 0 0
0 0 0 0 0 0 0 0 0 0 0 0 0 0 0 0 0 0 0 0 0 0 0 0 0 0 0 0 0 0 0 0 0 0 0 0 0 0 0 0 0 0 0 0
0 0 0 0 0 0 0 0 0 0 0 0 0 0 0 0 0 0 0 0 0 0 0 0 0 0 0 0 0 0 0 0 0 0 0 0 0 0 0 0 0 0 0 0
0 0 0 0 0 0 0 0 0 0 0 0 0 0 0 0 0 0 0 0 0 0 0 0 0 0 0 0 0 0 0 0 0 0 0 0 0 0 0 0 0 0 0 0
0 0 0 0 0 0 0 0 0 0 0 0 0 0 0 0 0 0 0 0 0 0 0 0 0 0 0 0 0 0 0 0 0 0 0 0 0 0 0 0 0 0 0 0
0 0 0 0 0 0 0 0 0 0 0 0 0 0 0 0 0 0 0 0 0 0 0 0 0 0 0 0 0 0 0 0 0 0 0 0 0 0 0 0 0 0 0 0
0 0 0 0 0 0 0 0 0 0 0 0 0 0 0 0 0 0 0 0 0 0 0 0 0 0 0 0 0 0 0 0 0 0 0 0 0 0 0 0 0 0 0 0
0 0 0 0 0 0 0 0 0 0 0 0 0 0 0 0 0 0 0 0 0 0 0 0 0 0 0 0 0 0 0 0 0 0 0 0 0 0 0 0 0 0 0 0
0 0 0 0 0 0 0 0 0 0 0 0 0 0 0 0 0 0 0 0 0 0 0 0 0 0 0 0 0 0 0 0 0 0 0 0 0 0 0 0 0 0 0 0
0 0 0 0 0 0 0 0 0 0 0 0 0 0 0 0 0 0 0 0 0 0 0 0 0 0 0 0 0 0 0 0 0 0 0 0 0 0 0 0 0 0 0 0
0 0 0 0 0 0 0 0 0 0 0 0 0 0 0 0 0 0 0 0 0 0 0 0 0 0 0 0 0 0 0 0 0 0 0 0 0 0 0 0 0 0 0 0
0 0 0 0 0 0 0 0 0 0 0 0 0 0 0 0 0 0 0 0 0 0 0 0 0 0 0 0 0 0 0 0 0 0 0 0 0 0 0 0 0 0 0 0
0 0 0 0 0 0 0 0 0 0 0 0 0 0 0 0 0 0 0 0 0 0 0 0 0 0 0 0 0 0 0 0 0 0 0 0 0 0 0 0 0 0 0 0
Wind_Speed
4 3 11 9 12 13 12 12 10 11 11 9 10 11 11 11 10 10 10 10 9 8 7 7 7 7 7 6 6 7 8 8 7 7 6 6 5 5 4 4 4 4 4 4
2 0 4 6 12 16 16 14 14 10 9 4 8 8 10 12 13 13 12 12 11 10 9 8 8 7 7 7 6 7 8 8 6 5 5 5 4 4 4 4 4 4 4 4
5 3 4 6 13 17 14 13 12 18 15 4 5 10 14 15 15 15 14 12 13 12 10 9 8 8 8 7 7 8 7 6 5 5 5 4 4 4 5 4 4 4 4 4
5 6 9 14 8 11 14 14 14 11 4 8 10 11 11 13 16 15 14 14 13 12 10 8 8 8 8 8 7 7 7 6 5 4 4 4 4 4 4 3 4 4 4 5
6 7 8 7 7 12 14 15 14 15 11 6 5 3 4 7 11 13 13 12 11 11 11 10 9 9 9 8 7 7 6 5 4 4 4 3 4 4 3 4 4 4 4 5
6 7 12 10 7 7 7 13 10 11 10 9 10 8 9 8 9 10 10 11 12 12 12 11 9 9 10 8 7 6 5 4 4 3 3 2 3 3 3 4 4 5 6 5
7 7 10 4 4 9 11 12 4 9 10 12 14 10 5 9 8 9 11 12 13 13 11 9 9 10 10 8 7 5 4 4 3 3 2 2 2 2 3 4 5 5 6 6
8 9 12 5 7 10 6 1 1 1 3 7 5 6 8 9 10 11 12 12 13 12 10 8 7 9 10 8 6 5 4 3 3 2 1 1 2 3 3 4 4 5 5 6
9 8 1 6 5 2 2 3 1 1 2 7 7 7 8 8 10 10 11 11 10 12 11 8 5 7 9 7 5 4 4 3 2 1 1 1 2 3 3 3 3 4 4 5
3 3 2 2 2 2 2 2 2 2 5 6 7 9 9 10 10 10 10 10 10 12 11 8 6 6 7 7 5 4 4 2 1 1 2 2 2 2 2 3 3 4 5 6
3 1 1 2 3 3 3 3 3 3 3 6 9 9 9 9 10 9 9 8 8 10 10 9 8 7 6 5 4 4 3 2 1 1 1 2 2 2 3 4 5 6 5 5
5 5 5 3 3 5 5 3 4 5 4 5 8 10 10 9 8 9 9 8 8 8 9 9 8 7 5 4 4 4 3 2 1 1 1 2 3 4 7 8 10 12 12 11
2 2 3 2 2 4 4 4 4 4 5 6 6 8 10 8 8 8 8 9 9 9 9 8 7 6 5 4 4 4 3 2 0 0 1 2 2 3 5 6 8 10 12 13
2 3 2 1 2 3 4 4 4 4 3 5 6 7 8 7 7 9 9 8 8 8 8 8 7 6 5 4 4 3 2 1 1 1 1 2 2 3 4 5 6 5 7 12
2 1 2 2 3 3 3 4 4 4 4 4 5 7 9 10 10 9 7 8 8 8 7 7 7 6 5 4 4 3 2 2 1 1 2 2 3 3 4 5 5 6 5 6
4 2 2 2 3 4 4 5 6 7 6 6 6 7 7 7 7 7 8 9 9 9 9 8 7 6 5 5 4 3 2 3 2 2 2 2 3 3 3 4 5 5 5 5
5 5 5 5 6 7 7 8 8 8 8 9 9 7 8 8 7 7 7 5 4 6 7 7 7 6 5 5 4 3 3 2 3 2 2 3 3 3 3 4 4 5 5 7
7 7 7 7 7 8 8 8 8 8 8 8 7 8 10 12 12 11 9 7 5 4 5 6 7 6 5 5 4 3 3 2 2 2 2 2 3 3 3 4 5 5 4 5
2 3 3 4 4 5 6 7 7 7 6 7 10 11 11 9 8 9 10 9 9 8 7 7 10 8 6 6 5 3 3 3 2 2 2 3 3 3 3 3 4 4 4 4
5 5 5 4 3 3 4 3 3 4 5 7 8 8 8 7 8 9 10 8 7 4 8 9 7 6 6 5 5 3 3 3 3 2 2 3 3 3 3 4 4 4 4 4
7 7 7 6 5 4 3 2 1 3 3 6 8 9 8 7 8 9 8 6 5 6 8 9 6 5 5 5 4 3 3 3 3 3 3 3 3 3 3 4 4 4 4 4
6 6 6 6 5 4 5 4 2 1 2 3 4 5 7 7 7 5 4 3 7 8 6 5 5 6 6 5 4 3 3 3 3 3 3 3 3 4 4 4 4 4 4 4
5 5 5 4 3 3 3 3 3 1 1 3 4 5 6 6 6 6 5 4 6 8 6 5 7 8 7 4 4 4 4 4 4 4 4 4 4 4 4 5 5 5 5 5
4 4 4 3 2 1 2 2 2 2 2 2 2 3 4 4 3 1 3 8 8 8 5 6 8 8 7 4 3 4 4 4 4 4 4 4 4 5 5 5 6 5 6 7
3 3 3 2 2 1 0 1 2 2 2 3 3 3 2 2 3 3 4 5 7 6 4 5 7 6 4 3 4 4 4 4 4 4 4 5 5 5 6 6 6 6 6 6
3 2 2 2 2 1 0 1 1 1 2 2 2 2 2 3 4 4 3 4 5 4 3 2 3 3 3 3 4 4 4 5 5 5 6 6 6 7 7 7 8 7 7 7
2 2 1 1 1 1 0 0 1 1 2 3 3 2 2 2 3 3 3 3 3 2 2 2 2 3 3 4 4 5 5 5 5 6 6 6 6 7 7 8 7 7 7 7
Wind_Direction
201 166 159 177 191 194 203 202 197 222 223 208 192 188 179 166 159 161 165 164 161 154 145 135 124 115 108 99 91 92 90 84 76 69 64 59 52 43 37 33 26 17 10 0
217 293 163 186 194 195 210 220 230 242 242 204 175 157 158 166 171 178 180 176 167 159 153 148 140 130 118 106 95 93 90 84 78 74 69 60 49 38 35 28 17 11 5 353
192 137 73 239 207 197 206 215 215 234 238 153 156 170 177 179 183 188 184 177 172 167 160 152 143 134 126 115 104 99 97 92 84 80 71 55 41 36 28 15 5 359 350 344
130 125 209 234 198 192 210 223 218 230 222 180 189 191 190 184 184 186 181 176 171 162 151 140 128 122 116 113 112 108 102 95 83 75 65 48 39 30 13 2 353 341 332 328
155 186 242 254 202 194 204 233 217 225 227 190 158 151 228 200 182 183 178 167 157 148 139 133 131 128 124 119 115 109 103 93 78 68 59 42 29 11 355 346 336 328 320 317
168 187 222 236 188 161 168 249 221 210 213 179 151 196 226 183 168 160 149 144 139 135 131 133 132 131 128 124 116 108 101 91 76 66 57 35 8 348 340 330 319 320 315 309
190 214 249 227 159 131 178 236 199 198 203 181 190 209 163 135 133 133 131 131 132 132 133 134 134 132 127 122 116 107 96 88 75 58 36 13 353 339 327 322 317 311 305 303
188 211 237 164 148 175 203 165 174 194 192 170 154 113 118 125 128 129 127 128 129 128 123 120 126 131 126 120 111 101 95 88 73 48 17 12 350 331 325 318 314 311 310 309
194 214 186 164 171 147 113 137 148 158 116 126 122 126 126 126 128 127 128 129 127 127 121 109 105 124 126 120 114 109 103 94 79 42 8 353 341 328 322 319 312 312 311 308
201 226 160 148 95 90 83 113 126 125 128 131 133 137 133 133 132 131 128 130 130 131 130 125 110 100 111 117 115 117 111 98 72 46 16 5 335 311 305 306 304 302 302 303
212 210 67 262 215 165 120 112 116 111 124 136 136 141 143 143 143 141 136 134 139 143 141 137 129 115 109 111 121 119 112 99 72 44 7 334 313 290 290 261 262 284 285 287
202 187 173 205 196 163 153 157 154 141 132 133 146 147 144 146 146 144 144 140 139 137 137 136 131 125 118 116 121 121 116 106 81 24 348 325 316 310 303 299 298 296 293 292
115 100 108 105 113 143 153 156 155 155 153 147 146 146 146 145 146 143 145 149 152 148 141 138 135 134 135 131 123 121 128 137 130 353 324 316 316 316 315 318 312 313 311 308
108 106 109 133 130 117 115 114 111 105 114 138 142 139 140 138 144 154 160 155 141 135 136 140 140 143 142 135 130 134 149 176 191 230 264 282 288 291 294 303 312 310 313 315
164 136 149 122 110 107 108 118 128 147 147 144 147 153 158 162 168 164 146 133 130 134 142 146 149 153 147 143 148 160 172 181 188 225 255 266 274 280 282 286 291 300 306 313
166 139 133 162 188 181 170 179 187 196 187 180 177 178 173 161 147 138 141 149 154 167 168 165 166 160 155 155 158 166 186 200 197 220 251 263 270 277 284 289 293 296 300 305
167 203 211 221 220 215 212 211 209 205 195 194 192 171 148 139 140 155 163 165 155 151 159 166 162 155 161 166 168 173 179 190 199 219 236 245 256 265 273 280 284 287 288 296
209 215 208 209 211 216 223 221 217 209 205 200 169 158 166 175 185 182 168 149 136 141 166 160 154 159 166 171 175 179 177 184 199 217 233 244 252 260 266 272 278 284 290 301
262 268 269 254 245 231 229 226 223 217 200 172 172 184 191 192 178 158 150 158 173 187 188 171 170 158 170 181 178 180 182 191 208 224 232 247 256 259 262 267 272 277 284 289
351 349 339 323 319 289 264 257 227 212 194 175 173 177 183 181 161 155 163 182 193 178 155 162 163 162 173 183 173 171 183 192 207 223 233 241 250 257 260 263 268 273 276 277
354 351 348 343 335 340 340 323 240 214 192 175 181 189 186 167 156 156 165 188 181 145 149 158 163 167 168 167 171 176 183 193 207 220 230 239 249 255 259 261 263 266 268 271
341 339 337 337 335 339 353 351 348 172 158 169 172 157 151 155 160 166 186 180 153 154 155 164 166 165 164 163 173 180 186 197 210 219 229 235 242 250 256 259 261 263 264 266
325 326 328 332 330 333 352 1 7 42 155 164 165 166 166 162 163 169 189 169 151 160 159 164 168 167 166 171 178 184 194 205 216 224 231 235 239 244 252 258 259 261 264 265
325 327 327 326 330 336 340 2 19 39 71 87 99 127 137 140 143 81 111 144 158 161 157 168 178 177 172 174 184 195 205 215 223 229 235 240 242 245 250 254 259 259 261 264
319 315 314 319 317 317 76 91 75 79 86 88 87 77 68 84 128 123 118 139 153 151 153 177 183 175 168 179 195 207 215 223 228 231 235 242 246 248 250 252 254 257 258 259
319 316 321 328 327 338 181 180 168 147 133 121 106 89 79 78 98 112 122 136 145 150 155 169 177 179 187 199 211 220 227 235 240 240 239 243 246 249 252 254 255 256 258 258
298 292 299 323 341 335 316 159 140 143 146 142 129 124 120 114 116 123 129 137 148 161 174 186 194 202 208 214 223 229 234 237 240 243 244 245 247 249 253 254 256 257 258 260